Time,TemperatureF,DewpointF,PressureIn,WindDirection,WindDirectionDegrees,WindSpeedMPH,WindSpeedGustMPH,Humidity,HourlyPrecipIn,Conditions,Clouds,dailyrainin,SoftwareType,DateUTC
2013-02-07 00:01:00,39.0,36.0,30.16,North,355,0.0,-999.0,89,-99.99,,,-99.99,,2013-02-07 08:01:00,
2013-02-07 00:11:00,39.0,36.0,30.16,North,355,0.0,-999.0,89,-99.99,,,-99.99,,2013-02-07 08:11:00,
2013-02-07 00:21:00,40.0,37.0,30.16,North,355,0.0,-999.0,90,-99.99,,,-99.99,,2013-02-07 08:21:00,
2013-02-07 00:31:00,41.0,38.0,30.16,North,355,0.0,-999.0,89,-99.99,,,-99.99,,2013-02-07 08:31:00,
2013-02-07 00:41:00,41.0,38.0,30.16,North,355,0.0,-999.0,89,-99.99,,,-99.99,,2013-02-07 08:41:00,
2013-02-07 00:52:00,42.0,39.0,30.16,North,355,0.0,-999.0,88,-99.99,,,-99.99,,2013-02-07 08:52:00,
2013-02-07 01:01:00,42.0,39.0,30.16,North,355,0.0,-999.0,88,-99.99,,,-99.99,,2013-02-07 09:01:00,
2013-02-07 01:11:00,42.0,39.0,30.16,North,355,0.0,-999.0,88,-99.99,,,-99.99,,2013-02-07 09:11:00,
2013-02-07 01:21:00,43.0,39.0,30.15,NE,46,0.0,-999.0,86,-99.99,,,-99.99,,2013-02-07 09:21:00,
2013-02-07 01:31:00,42.0,38.0,30.15,NE,46,0.0,-999.0,85,-99.99,,,-99.99,,2013-02-07 09:31:00,
2013-02-07 01:41:00,42.0,38.0,30.15,NE,46,0.0,-999.0,85,-99.99,,,-99.99,,2013-02-07 09:41:00,
2013-02-07 01:52:00,42.0,38.0,30.15,NE,46,0.0,-999.0,86,-99.99,,,-99.99,,2013-02-07 09:52:00,
2013-02-07 02:01:00,42.0,38.0,30.16,NE,46,0.0,-999.0,86,-99.99,,,-99.99,,2013-02-07 10:01:00,
2013-02-07 02:11:00,42.0,38.0,30.16,NE,46,0.0,-999.0,86,-99.99,,,-99.99,,2013-02-07 10:11:00,
2013-02-07 02:22:00,42.0,38.0,30.15,NE,46,0.0,-999.0,85,-99.99,,,-99.99,,2013-02-07 10:22:00,
2013-02-07 02:31:00,43.0,39.0,30.15,NE,46,0.0,-999.0,86,-99.99,,,-99.99,,2013-02-07 10:31:00,
2013-02-07 02:41:00,43.0,39.0,30.15,NE,46,0.0,-999.0,86,-99.99,,,-99.99,,2013-02-07 10:41:00,
2013-02-07 02:52:00,43.0,39.0,30.14,ENE,58,0.0,-999.0,87,-99.99,,,-99.99,,2013-02-07 10:52:00,
2013-02-07 03:01:00,43.0,40.0,30.14,ENE,58,0.0,-999.0,89,-99.99,,,-99.99,,2013-02-07 11:01:00,
2013-02-07 03:11:00,43.0,40.0,30.14,ENE,58,0.0,-999.0,89,-99.99,,,-99.99,,2013-02-07 11:11:00,
2013-02-07 03:22:00,43.0,41.0,30.14,ENE,58,0.0,-999.0,91,-99.99,,,-99.99,,2013-02-07 11:22:00,
2013-02-07 03:32:00,43.0,41.0,30.14,ENE,58,0.0,-999.0,91,-99.99,,,-99.99,,2013-02-07 11:32:00,
2013-02-07 03:43:00,43.0,41.0,30.14,ENE,58,0.0,-999.0,91,-99.99,,,-99.99,,2013-02-07 11:43:00,
2013-02-07 03:52:00,43.0,41.0,30.13,ENE,58,0.0,-999.0,92,-99.99,,,-99.99,,2013-02-07 11:52:00,
2013-02-07 04:01:00,43.0,41.0,30.12,ENE,58,0.0,-999.0,92,-99.99,,,-99.99,,2013-02-07 12:01:00,
2013-02-07 04:11:00,43.0,41.0,30.12,ENE,58,0.0,-999.0,92,-99.99,,,-99.99,,2013-02-07 12:11:00,
2013-02-07 04:21:00,43.0,41.0,30.12,ENE,58,0.0,-999.0,93,-99.99,,,-99.99,,2013-02-07 12:21:00,
2013-02-07 04:32:00,43.0,41.0,30.11,ENE,58,0.0,-999.0,93,-99.99,,,-99.99,,2013-02-07 12:32:00,
2013-02-07 04:41:00,43.0,41.0,30.11,ENE,58,0.0,-999.0,93,-99.99,,,-99.99,,2013-02-07 12:41:00,
2013-02-07 04:53:00,44.0,42.0,30.11,ENE,59,0.0,-999.0,94,-99.99,,,-99.99,,2013-02-07 12:53:00,
2013-02-07 05:02:00,45.0,43.0,30.11,SE,134,2.0,-999.0,94,-99.99,,,-99.99,,2013-02-07 13:02:00,
2013-02-07 05:11:00,45.0,43.0,30.11,SE,134,2.0,-999.0,94,-99.99,,,-99.99,,2013-02-07 13:11:00,
2013-02-07 05:21:00,46.0,44.0,30.10,SE,131,2.0,-999.0,94,-99.99,,,-99.99,,2013-02-07 13:21:00,
2013-02-07 05:31:00,46.0,44.0,30.10,SE,141,2.0,-999.0,94,-99.99,,,-99.99,,2013-02-07 13:31:00,
2013-02-07 05:41:00,46.0,44.0,30.10,SE,141,2.0,-999.0,94,-99.99,,,-99.99,,2013-02-07 13:41:00,
2013-02-07 05:52:00,46.0,44.0,30.09,SE,130,2.0,-999.0,94,-99.99,,,-99.99,,2013-02-07 13:52:00,
2013-02-07 06:01:00,46.0,44.0,30.09,SE,139,3.0,-999.0,94,-99.99,,,-99.99,,2013-02-07 14:01:00,
2013-02-07 06:11:00,46.0,44.0,30.09,SE,139,3.0,-999.0,94,-99.99,,,-99.99,,2013-02-07 14:11:00,
2013-02-07 06:21:00,46.0,44.0,30.09,SE,146,2.0,-999.0,94,-99.99,,,-99.99,,2013-02-07 14:21:00,
2013-02-07 06:31:00,46.0,44.0,30.09,SE,139,2.0,-999.0,94,-99.99,,,-99.99,,2013-02-07 14:31:00,
2013-02-07 06:41:00,46.0,44.0,30.09,SE,139,2.0,-999.0,94,-99.99,,,-99.99,,2013-02-07 14:41:00,
2013-02-07 06:52:00,46.0,44.0,30.09,SE,133,3.0,-999.0,94,-99.99,,,-99.99,,2013-02-07 14:52:00,
2013-02-07 07:01:00,46.0,44.0,30.09,ESE,122,1.0,-999.0,94,-99.99,,,-99.99,,2013-02-07 15:01:00,
2013-02-07 07:11:00,46.0,44.0,30.09,ESE,122,1.0,-999.0,94,-99.99,,,-99.99,,2013-02-07 15:11:00,
2013-02-07 07:21:00,46.0,44.0,30.09,SE,129,0.0,-999.0,94,-99.99,,,-99.99,,2013-02-07 15:21:00,
2013-02-07 07:31:00,47.0,46.0,30.10,East,80,1.0,-999.0,95,-99.99,,,-99.99,,2013-02-07 15:31:00,
2013-02-07 07:41:00,47.0,46.0,30.10,East,80,1.0,-999.0,95,-99.99,,,-99.99,,2013-02-07 15:41:00,
2013-02-07 07:52:00,46.0,44.0,30.10,ENE,74,0.0,-999.0,94,-99.99,,,-99.99,,2013-02-07 15:52:00,
2013-02-07 08:01:00,46.0,44.0,30.10,ENE,74,0.0,-999.0,94,-99.99,,,-99.99,,2013-02-07 16:01:00,
2013-02-07 08:11:00,46.0,44.0,30.10,ENE,74,0.0,-999.0,94,-99.99,,,-99.99,,2013-02-07 16:11:00,
2013-02-07 08:21:00,46.0,44.0,30.11,ENE,74,0.0,-999.0,94,-99.99,,,-99.99,,2013-02-07 16:21:00,
2013-02-07 08:31:00,46.0,44.0,30.11,ENE,74,0.0,-999.0,94,-99.99,,,-99.99,,2013-02-07 16:31:00,
2013-02-07 08:41:00,46.0,44.0,30.11,ENE,74,0.0,-999.0,94,-99.99,,,-99.99,,2013-02-07 16:41:00,
2013-02-07 08:52:00,46.0,44.0,30.12,ENE,74,0.0,-999.0,94,-99.99,,,-99.99,,2013-02-07 16:52:00,
2013-02-07 09:01:00,46.0,44.0,30.13,ENE,74,0.0,-999.0,94,-99.99,,,-99.99,,2013-02-07 17:01:00,
2013-02-07 09:11:00,46.0,44.0,30.13,ENE,74,0.0,-999.0,94,-99.99,,,-99.99,,2013-02-07 17:11:00,
2013-02-07 09:21:00,47.0,45.0,30.13,ENE,74,0.0,-999.0,94,-99.99,,,-99.99,,2013-02-07 17:21:00,
2013-02-07 09:31:00,48.0,46.0,30.13,ENE,74,0.0,-999.0,93,-99.99,,,-99.99,,2013-02-07 17:31:00,
2013-02-07 09:41:00,48.0,46.0,30.13,ENE,74,0.0,-999.0,93,-99.99,,,-99.99,,2013-02-07 17:41:00,
2013-02-07 09:52:00,49.0,46.0,30.13,ENE,74,0.0,-999.0,90,-99.99,,,-99.99,,2013-02-07 17:52:00,
2013-02-07 10:01:00,50.0,46.0,30.13,ENE,74,0.0,-999.0,85,-99.99,,,-99.99,,2013-02-07 18:01:00,
2013-02-07 10:11:00,50.0,46.0,30.13,ENE,74,0.0,-999.0,85,-99.99,,,-99.99,,2013-02-07 18:11:00,
2013-02-07 10:22:00,50.0,45.0,30.13,ENE,68,0.0,-999.0,83,-99.99,,,-99.99,,2013-02-07 18:22:00,
2013-02-07 10:31:00,51.0,45.0,30.13,West,263,0.0,-999.0,79,-99.99,,,-99.99,,2013-02-07 18:31:00,
2013-02-07 10:41:00,51.0,45.0,30.13,West,263,0.0,-999.0,79,-99.99,,,-99.99,,2013-02-07 18:41:00,
2013-02-07 10:52:00,52.0,44.0,30.13,WNW,286,0.0,-999.0,74,-99.99,,,-99.99,,2013-02-07 18:52:00,
2013-02-07 11:01:00,52.0,44.0,30.13,NNW,337,0.0,-999.0,73,-99.99,,,-99.99,,2013-02-07 19:01:00,
2013-02-07 11:11:00,52.0,44.0,30.13,NNW,337,0.0,-999.0,73,-99.99,,,-99.99,,2013-02-07 19:11:00,
2013-02-07 11:22:00,52.0,44.0,30.13,NNW,337,0.0,-999.0,73,-99.99,,,-99.99,,2013-02-07 19:22:00,
2013-02-07 11:31:00,52.0,41.0,30.12,North,360,1.0,-999.0,67,-99.99,,,-99.99,,2013-02-07 19:31:00,
2013-02-07 11:41:00,52.0,41.0,30.12,North,360,1.0,-999.0,67,-99.99,,,-99.99,,2013-02-07 19:41:00,
2013-02-07 11:52:00,53.0,43.0,30.12,WNW,299,1.0,-999.0,70,-99.99,,,-99.99,,2013-02-07 19:52:00,
2013-02-07 12:01:00,53.0,42.0,30.11,NW,304,1.0,-999.0,66,-99.99,,,-99.99,,2013-02-07 20:01:00,
2013-02-07 12:11:00,53.0,42.0,30.11,NW,304,1.0,-999.0,66,-99.99,,,-99.99,,2013-02-07 20:11:00,
2013-02-07 12:21:00,53.0,40.0,30.11,North,360,2.0,-999.0,62,-99.99,,,-99.99,,2013-02-07 20:21:00,
2013-02-07 12:31:00,54.0,41.0,30.10,North,349,0.0,-999.0,62,-99.99,,,-99.99,,2013-02-07 20:31:00,
2013-02-07 12:41:00,54.0,41.0,30.10,North,349,0.0,-999.0,62,-99.99,,,-99.99,,2013-02-07 20:41:00,
2013-02-07 12:52:00,54.0,39.0,30.09,North,355,2.0,-999.0,57,-99.99,,,-99.99,,2013-02-07 20:52:00,
2013-02-07 13:01:00,55.0,39.0,30.09,West,275,1.0,-999.0,55,-99.99,,,-99.99,,2013-02-07 21:01:00,
2013-02-07 13:11:00,55.0,39.0,30.09,West,275,1.0,-999.0,55,-99.99,,,-99.99,,2013-02-07 21:11:00,
2013-02-07 13:21:00,55.0,38.0,30.09,NNW,348,2.0,-999.0,53,-99.99,,,-99.99,,2013-02-07 21:21:00,
2013-02-07 13:31:00,54.0,37.0,30.08,North,5,1.0,-999.0,52,-99.99,,,-99.99,,2013-02-07 21:31:00,
2013-02-07 13:41:00,54.0,37.0,30.08,North,5,1.0,-999.0,52,-99.99,,,-99.99,,2013-02-07 21:41:00,
2013-02-07 13:52:00,55.0,39.0,30.07,NNW,346,1.0,-999.0,55,-99.99,,,-99.99,,2013-02-07 21:52:00,
2013-02-07 14:01:00,56.0,39.0,30.07,NNW,345,1.0,-999.0,52,-99.99,,,-99.99,,2013-02-07 22:01:00,
2013-02-07 14:11:00,56.0,39.0,30.07,NNW,345,1.0,-999.0,52,-99.99,,,-99.99,,2013-02-07 22:11:00,
2013-02-07 14:21:00,56.0,38.0,30.06,ESE,106,2.0,-999.0,50,-99.99,,,-99.99,,2013-02-07 22:21:00,
2013-02-07 14:31:00,57.0,38.0,30.06,South,186,1.0,-999.0,48,-99.99,,,-99.99,,2013-02-07 22:31:00,
2013-02-07 14:42:00,57.0,38.0,30.06,South,186,1.0,-999.0,48,-99.99,,,-99.99,,2013-02-07 22:42:00,
2013-02-07 14:52:00,57.0,38.0,30.06,SE,142,1.0,-999.0,48,-99.99,,,-99.99,,2013-02-07 22:52:00,
2013-02-07 15:01:00,57.0,38.0,30.05,North,349,1.0,-999.0,48,-99.99,,,-99.99,,2013-02-07 23:01:00,
2013-02-07 15:11:00,57.0,38.0,30.05,North,349,1.0,-999.0,48,-99.99,,,-99.99,,2013-02-07 23:11:00,
2013-02-07 15:21:00,57.0,40.0,30.05,SSW,194,1.0,-999.0,52,-99.99,,,-99.99,,2013-02-07 23:21:00,
2013-02-07 15:31:00,57.0,39.0,30.05,SE,140,1.0,-999.0,51,-99.99,,,-99.99,,2013-02-07 23:31:00,
2013-02-07 15:41:00,57.0,39.0,30.05,SE,140,1.0,-999.0,51,-99.99,,,-99.99,,2013-02-07 23:41:00,
2013-02-07 15:52:00,56.0,39.0,30.05,South,177,1.0,-999.0,52,-99.99,,,-99.99,,2013-02-07 23:52:00,
2013-02-07 16:01:00,55.0,39.0,30.05,NNW,335,1.0,-999.0,54,-99.99,,,-99.99,,2013-02-08 00:01:00,
2013-02-07 16:11:00,55.0,39.0,30.05,NNW,335,1.0,-999.0,54,-99.99,,,-99.99,,2013-02-08 00:11:00,
2013-02-07 16:21:00,54.0,39.0,30.05,WNW,298,1.0,-999.0,56,-99.99,,,-99.99,,2013-02-08 00:21:00,
2013-02-07 16:31:00,53.0,39.0,30.04,WSW,256,1.0,-999.0,60,-99.99,,,-99.99,,2013-02-08 00:31:00,
2013-02-07 16:41:00,53.0,39.0,30.04,WSW,256,1.0,-999.0,60,-99.99,,,-99.99,,2013-02-08 00:41:00,
2013-02-07 16:52:00,52.0,39.0,30.04,East,90,1.0,-999.0,61,-99.99,,,-99.99,,2013-02-08 00:52:00,
2013-02-07 17:01:00,51.0,38.0,30.04,NE,51,2.0,-999.0,62,-99.99,,,-99.99,,2013-02-08 01:01:00,
2013-02-07 17:11:00,51.0,38.0,30.04,NE,51,2.0,-999.0,62,-99.99,,,-99.99,,2013-02-08 01:11:00,
2013-02-07 17:21:00,50.0,39.0,30.04,SSE,161,1.0,-999.0,66,-99.99,,,-99.99,,2013-02-08 01:21:00,
2013-02-07 17:31:00,49.0,40.0,30.04,North,360,1.0,-999.0,70,-99.99,,,-99.99,,2013-02-08 01:31:00,
2013-02-07 17:41:00,49.0,40.0,30.04,North,360,1.0,-999.0,70,-99.99,,,-99.99,,2013-02-08 01:41:00,
2013-02-07 17:52:00,48.0,40.0,30.04,WNW,286,1.0,-999.0,73,-99.99,,,-99.99,,2013-02-08 01:52:00,
2013-02-07 18:01:00,47.0,41.0,30.04,SSE,160,1.0,-999.0,78,-99.99,,,-99.99,,2013-02-08 02:01:00,
2013-02-07 18:11:00,47.0,41.0,30.04,SSE,160,1.0,-999.0,78,-99.99,,,-99.99,,2013-02-08 02:11:00,
2013-02-07 18:21:00,46.0,40.0,30.04,SSE,161,0.0,-999.0,80,-99.99,,,-99.99,,2013-02-08 02:21:00,
2013-02-07 18:31:00,45.0,39.0,30.04,SSE,161,0.0,-999.0,80,-99.99,,,-99.99,,2013-02-08 02:31:00,
2013-02-07 18:42:00,45.0,39.0,30.04,SSE,161,0.0,-999.0,80,-99.99,,,-99.99,,2013-02-08 02:42:00,
2013-02-07 18:52:00,45.0,40.0,30.04,SSE,161,0.0,-999.0,81,-99.99,,,-99.99,,2013-02-08 02:52:00,
2013-02-07 19:01:00,44.0,39.0,30.04,SSE,161,0.0,-999.0,82,-99.99,,,-99.99,,2013-02-08 03:01:00,
2013-02-07 19:11:00,44.0,39.0,30.04,SSE,161,0.0,-999.0,82,-99.99,,,-99.99,,2013-02-08 03:11:00,
2013-02-07 19:22:00,44.0,39.0,30.04,SSE,161,0.0,-999.0,84,-99.99,,,-99.99,,2013-02-08 03:22:00,
2013-02-07 19:31:00,43.0,39.0,30.03,SSE,161,0.0,-999.0,85,-99.99,,,-99.99,,2013-02-08 03:31:00,
2013-02-07 19:41:00,43.0,39.0,30.03,SSE,161,0.0,-999.0,85,-99.99,,,-99.99,,2013-02-08 03:41:00,
2013-02-07 19:52:00,43.0,39.0,30.03,SSE,161,0.0,-999.0,85,-99.99,,,-99.99,,2013-02-08 03:52:00,
2013-02-07 20:01:00,42.0,38.0,30.03,SSE,161,0.0,-999.0,85,-99.99,,,-99.99,,2013-02-08 04:01:00,
2013-02-07 20:11:00,42.0,38.0,30.03,SSE,161,0.0,-999.0,85,-99.99,,,-99.99,,2013-02-08 04:11:00,
2013-02-07 20:21:00,42.0,38.0,30.03,SSE,161,0.0,-999.0,86,-99.99,,,-99.99,,2013-02-08 04:21:00,
2013-02-07 20:31:00,41.0,39.0,30.03,SSE,161,0.0,-999.0,92,-99.99,,,-99.99,,2013-02-08 04:31:00,
2013-02-07 20:41:00,41.0,39.0,30.03,SSE,161,0.0,-999.0,92,-99.99,,,-99.99,,2013-02-08 04:41:00,
2013-02-07 20:52:00,41.0,39.0,30.03,SSE,161,0.0,-999.0,92,-99.99,,,-99.99,,2013-02-08 04:52:00,
2013-02-07 21:01:00,41.0,38.0,30.03,SSE,161,0.0,-999.0,88,-99.99,,,-99.99,,2013-02-08 05:01:00,
2013-02-07 21:11:00,41.0,38.0,30.03,SSE,161,0.0,-999.0,88,-99.99,,,-99.99,,2013-02-08 05:11:00,
2013-02-07 21:22:00,40.0,37.0,30.03,SSE,161,0.0,-999.0,88,-99.99,,,-99.99,,2013-02-08 05:22:00,
2013-02-07 21:31:00,40.0,37.0,30.03,SSE,161,0.0,-999.0,88,-99.99,,,-99.99,,2013-02-08 05:31:00,
2013-02-07 21:41:00,40.0,37.0,30.03,SSE,161,0.0,-999.0,88,-99.99,,,-99.99,,2013-02-08 05:41:00,
2013-02-07 21:52:00,39.0,36.0,30.02,SSE,161,0.0,-999.0,89,-99.99,,,-99.99,,2013-02-08 05:52:00,
2013-02-07 22:01:00,39.0,36.0,30.02,SSE,161,0.0,-999.0,89,-99.99,,,-99.99,,2013-02-08 06:01:00,
2013-02-07 22:11:00,39.0,36.0,30.02,SSE,161,0.0,-999.0,89,-99.99,,,-99.99,,2013-02-08 06:11:00,
2013-02-07 22:21:00,39.0,37.0,30.02,SSE,161,0.0,-999.0,91,-99.99,,,-99.99,,2013-02-08 06:21:00,
2013-02-07 22:31:00,39.0,37.0,30.01,SSE,161,0.0,-999.0,92,-99.99,,,-99.99,,2013-02-08 06:31:00,
2013-02-07 22:42:00,39.0,37.0,30.01,SSE,161,0.0,-999.0,92,-99.99,,,-99.99,,2013-02-08 06:42:00,
2013-02-07 22:52:00,39.0,37.0,30.01,SSE,161,0.0,-999.0,92,-99.99,,,-99.99,,2013-02-08 06:52:00,
2013-02-07 23:01:00,39.0,37.0,30.01,SSE,161,0.0,-999.0,92,-99.99,,,-99.99,,2013-02-08 07:01:00,
2013-02-07 23:11:00,39.0,37.0,30.01,SSE,161,0.0,-999.0,92,-99.99,,,-99.99,,2013-02-08 07:11:00,
2013-02-07 23:21:00,38.0,36.0,30.01,SSE,161,0.0,-999.0,92,-99.99,,,-99.99,,2013-02-08 07:21:00,
2013-02-07 23:31:00,38.0,36.0,30.01,SSE,161,0.0,-999.0,92,-99.99,,,-99.99,,2013-02-08 07:31:00,
2013-02-07 23:42:00,38.0,36.0,30.00,SSE,161,0.0,-999.0,93,-99.99,,,-99.99,,2013-02-08 07:42:00,
2013-02-07 23:52:00,38.0,36.0,30.00,SSE,161,0.0,-999.0,93,-99.99,,,-99.99,,2013-02-08 07:52:00,